DW1354 Weather Reports


time (UTC)temp
F
wind
direction
speed
knots
gust
knots
rain 1hr
in
rain 24hr
in
rain mn
in
humidity
%
barometer
mb
20211017152023 58 0.0 0.0 0.00 0.00 0.00 64 1014.7
20211017151021 58 0.0 0.0 0.00 0.00 0.00 66 1014.7
20211017150022 58 0.0 0.0 0.00 0.00 0.00 68 1014.7
20211017145021 57 0.0 0.0 0.00 0.00 0.00 69 1014.7
20211017144017 57 0.0 0.0 0.00 0.00 0.00 66 1014.7
20211017143015 56 0.0 0.0 0.00 0.00 0.00 70 1014.7
20211017142020 55 0.0 0.0 0.00 0.00 0.00 75 1014.7
20211017141022 55 0.0 0.0 0.00 0.00 0.00 74 1014.8
20211017140021 54 0.0 0.0 0.00 0.00 0.00 77 1014.8
20211017135022 53 0.0 0.0 0.00 0.00 0.00 78 1014.9
20211017134022 53 0.0 0.0 0.00 0.00 0.00 76 1015.0
20211017133016 52 0.0 0.0 0.00 0.00 0.00 75 1014.9
20211017132015 52 0.0 0.0 0.00 0.00 0.00 78 1015.0
20211017131020 51 0.0 0.0 0.00 0.00 0.00 78 1014.9
20211017130022 51 0.0 0.0 0.00 0.00 0.00 80 1014.8
20211017125020 50 0.0 0.0 0.00 0.00 0.00 79 1014.8
20211017124021 50 0.0 0.0 0.00 0.00 0.00 80 1014.8
20211017123022 50 0.0 0.0 0.00 0.00 0.00 81 1014.9
20211017122128 0 0.0 0.0 0.00 0.00 0.00
20211017121516 0 0.0 0.0 0.00 0.00 0.00
20211017120534 0 0.0 0.0 0.00 0.00 0.00
20211017120024 0 0.0 0.0 0.00 0.00 0.00
20211017115021 0 0.0 0.0 0.00 0.00 0.00
20211017114520 0 0.0 0.0 0.00 0.00 0.00
20211017113521 0 0.0 0.0 0.00 0.00 0.00
20211017113019 0 0.0 0.0 0.00 0.00 0.00
20211017112520 0 0.0 0.0 0.00 0.00 0.00
20211017111521 0 0.0 0.0 0.00 0.00 0.00
20211017111020 0 0.0 0.0 0.00 0.00 0.00
20211017110020 0 0.0 0.0 0.00 0.00 0.00
20211017105617 0 0.0 0.0 0.00 0.00 0.00
20211017105020 0 0.0 0.0 0.00 0.00 0.00
20211017104039 0 0.0 0.0 0.00 0.00 0.00
20211017103535 46 0.0 0.0 0.00 0.00 0.00 89 1013.9
20211017102520 46 0.0 0.0 0.00 0.00 0.00 92 1013.6
20211017101520 46 0.0 0.0 0.00 0.00 0.00 91 1013.8
20211017100515 46 0.0 0.0 0.00 0.00 0.00 91 1013.8
20211017095517 46 0.0 0.0 0.00 0.00 0.00 91 1013.8
20211017094522 46 0.0 0.0 0.00 0.00 0.00 91 1013.8
20211017093520 46 0.0 0.0 0.00 0.00 0.00 92 1013.7
20211017092521 46 0.0 0.0 0.00 0.00 0.00 91 1013.7
20211017091520 46 0.0 0.0 0.00 0.00 0.00 91 1013.6
20211017090520 46 0.0 0.0 0.00 0.00 0.00 91 1013.5
20211017085515 46 0.0 0.0 0.00 0.00 0.00 91 1013.4
20211017084517 46 0.0 0.0 0.00 0.00 0.00 91 1013.3
20211017083522 46 0.0 0.0 0.00 0.00 0.00 90 1013.4
20211017082520 47 0.0 0.0 0.00 0.00 0.00 90 1013.4
20211017081520 47 0.0 0.0 0.00 0.00 0.00 91 1013.4
20211017080520 47 0.0 0.0 0.00 0.00 0.00 92 1013.4
20211017075520 47 0.0 0.0 0.00 0.00 0.00 91 1013.5
20211017074515 47 0.0 0.0 0.00 0.00 0.00 91 1013.5
20211017073520 48 0.0 0.0 0.00 0.00 0.00 91 1013.4
20211017072520 48 0.0 0.0 0.00 0.00 0.00 91 1013.4
20211017071520 48 0.0 0.0 0.00 0.00 0.00 91 1013.3
20211017070520 48 0.0 0.0 0.00 0.00 0.00 92 1013.2
20211017065520 49 0.0 0.0 0.00 0.00 0.00 92 1013.3
20211017064520 49 0.0 0.0 0.00 0.00 0.00 92 1013.1
20211017063515 50 0.0 0.0 0.00 0.00 0.00 92 1013.3
20211017062520 50 0.0 0.0 0.00 0.00 0.00 92 1013.4
20211017061520 50 0.0 0.0 0.00 0.00 0.00 92 1013.4
20211017060520 51 0.0 0.0 0.00 0.00 0.00 92 1013.4
20211017055522 51 0.0 0.0 0.00 0.00 0.00 92 1013.3
20211017054520 51 0.0 0.0 0.00 0.00 0.00 92 1013.3
20211017053520 51 0.0 0.0 0.00 0.00 0.00 92 1013.2
20211017052515 51 0.0 0.0 0.00 0.00 0.00 91 1013.3
20211017051520 51 0.0 0.0 0.00 0.00 0.00 92 1013.3
20211017050520 51 0.0 0.0 0.00 0.00 0.00 92 1013.1
20211017045520 51 0.0 0.0 0.00 0.00 0.00 92 1013.2
20211017044520 50 0.0 0.0 0.00 0.00 0.00 92 1013.0
20211017043520 50 0.0 0.0 0.00 0.00 0.00 93 1013.1
20211017042515 50 0.0 0.0 0.00 0.00 0.00 93 1012.9
20211017041515 50 0.0 0.0 0.00 0.00 0.00 92 1012.8
20211017040520 50 0.0 0.0 0.00 0.00 0.00 93 1012.8
20211017035520 50 0.0 0.0 0.00 0.00 0.00 92 1012.8
20211017034520 50 0.0 0.0 0.00 0.00 0.00 92 1012.8
20211017033520 50 0.0 0.0 0.00 0.00 0.00 93 1012.9
20211017032520 50 0.0 0.0 0.00 0.00 0.00 93 1012.8
20211017031515 50 0.0 0.0 0.00 0.00 0.00 92 1012.7
20211017030515 50 0.0 0.0 0.00 0.00 0.00 92 1012.7
20211017025522 50 0.0 0.0 0.00 0.00 0.00 92 1012.6
20211017024520 50 0.0 0.0 0.00 0.00 0.00 92 1012.6
20211017023520 51 0.0 0.0 0.00 0.00 0.00 92 1012.5
20211017022520 51 0.0 0.0 0.00 0.00 0.00 92 1012.5
20211017021521 51 0.0 0.0 0.00 0.00 0.00 92 1012.4
20211017020516 51 0.0 0.0 0.00 0.00 0.00 92 1012.4
20211017015523 51 0.0 0.0 0.00 0.00 0.00 92 1012.1
20211017014522 52 0.0 0.0 0.00 0.00 0.00 92 1012.0
20211017013520 52 0.0 0.0 0.00 0.00 0.00 91 1011.8
20211017012520 52 0.0 0.0 0.00 0.00 0.00 91 1011.7
20211017011519 52 0.0 0.0 0.00 0.00 0.00 91 1011.6
20211017010521 53 0.0 0.0 0.00 0.00 0.00 90 1011.6
20211017005515 54 0.0 0.0 0.00 0.00 0.00 90 1011.6
20211017004520 54 0.0 0.0 0.00 0.00 0.00 90 1011.4
20211017003520 55 0.0 0.0 0.00 0.00 0.00 89 1011.2
20211017002520 55 0.0 0.0 0.00 0.00 0.00 88 1011.1
20211017001522 56 0.0 0.0 0.00 0.00 0.00 86 1011.1
20211017000520 57 0.0 0.0 0.00 0.00 0.00 86 1010.9
20211016235521 57 0.0 0.0 0.00 0.00 0.00 83 1010.7
20211016234516 57 0.0 0.0 0.00 0.00 0.00 84 1010.6
20211016233521 57 0.0 0.0 0.00 0.00 0.00 82 1010.3
20211016232520 57 0.0 0.0 0.00 0.00 0.00 87 1010.1
20211016231520 57 0.0 0.0 0.00 0.00 0.00 87 1010.1
20211016230520 57 0.0 0.0 0.00 0.00 0.00 89 1009.8
20211016225520 57 0.0 0.0 0.00 0.00 0.00 88 1009.4
20211016224515 58 0.0 0.0 0.00 0.00 0.00 89 1009.4
20211016223516 58 0.0 0.0 0.00 0.00 0.00 87 1009.0
20211016222521 58 0.0 0.0 0.00 0.00 0.00 89 1008.9
20211016221521 58 0.0 0.0 0.00 0.00 0.00 89 1008.9
20211016220521 58 0.0 0.0 0.00 0.00 0.00 91 1008.4
20211016215521 59 0.0 0.0 0.00 0.00 0.00 91 1008.5
20211016214520 59 0.0 0.0 0.00 0.00 0.00 91 1008.2
20211016213515 59 0.0 0.0 0.00 0.00 0.00 92 1007.7
20211016212515 60 0.0 0.0 0.00 0.00 0.00 93 1007.4
20211016211520 60 0.0 0.0 0.00 0.00 0.00 94 1007.4
20211016210520 61 0.0 0.0 0.00 0.00 0.00 94 1007.0
20211016205520 61 0.0 0.0 0.00 0.00 0.00 94 1006.8
20211016204518 61 0.0 0.0 0.00 0.00 0.00 94 1006.6
20211016203520 61 0.0 0.0 0.00 0.00 0.00 94 1006.5
20211016202515 61 0.0 0.0 0.00 0.00 0.00 94 1006.4
20211016201520 61 0.0 0.0 0.00 0.00 0.00 95 1006.5
20211016200522 61 0.0 0.0 0.00 0.00 0.00 94 1006.5
20211016195522 61 0.0 0.0 0.00 0.00 0.00 94 1006.6
20211016194521 61 0.0 0.0 0.00 0.00 0.00 94 1006.5
20211016193521 61 0.0 0.0 0.00 0.00 0.00 94 1006.0
20211016192520 61 0.0 0.0 0.00 0.00 0.00 94 1005.7
20211016191514 61 0.0 0.0 0.00 0.00 0.00 94 1005.6
20211016190520 61 0.0 0.0 0.00 0.00 0.00 94 1006.2
20211016185520 61 0.0 0.0 0.00 0.00 0.00 94 1006.1
20211016184520 61 0.0 0.0 0.00 0.00 0.00 93 1005.1
20211016183521 61 0.0 0.0 0.00 0.00 0.00 93 1005.3
20211016182520 61 0.0 0.0 0.00 0.00 0.00 93 1005.2
20211016181522 62 0.0 0.0 0.00 0.00 0.00 92 1005.7
20211016180523 62 0.0 0.0 0.00 0.00 0.00 91 1006.1
20211016175522 64 0.0 0.0 0.00 0.00 0.00 89 1005.3
20211016174522 66 0.0 0.0 0.00 0.00 0.00 85 1005.8
20211016173520 68 0.0 0.0 0.00 0.00 0.00 79 1006.2
20211016172522 69 0.0 0.0 0.00 0.00 0.00 78 1006.0
20211016171520 70 0.0 0.0 0.00 0.00 0.00 79 1005.9
20211016170522 71 0.0 0.0 0.00 0.00 0.00 84 1005.9
20211016165522 72 0.0 0.0 0.00 0.00 0.00 84 1005.3
20211016164522 72 0.0 0.0 0.00 0.00 0.00 83 1005.7
20211016163523 72 0.0 0.0 0.00 0.00 0.00 84 1005.8
20211016162522 73 0.0 0.0 0.00 0.00 0.00 83 1006.0
20211016161518 73 0.0 0.0 0.00 0.00 0.00 83 1005.5
20211016160517 73 0.0 0.0 0.00 0.00 0.00 83 1005.7
20211016155523 73 0.0 0.0 0.00 0.00 0.00 84 1005.6
20211016154523 72 0.0 0.0 0.00 0.00 0.00 85 1005.6
20211016153522 71 0.0 0.0 0.00 0.00 0.00 87 1005.6
20211016152521 71 0.0 0.0 0.00 0.00 0.00 87 1005.6